Location: Ernez
(36.4595°N, 29.8755°E)
Time: 09:44:09
(UTC+00:00)

Spot 4 Rocket - Pass Details

Date: 13 November 2025
Orbit: 769 x 773 km, 98.8° (Epoch: 05 December)

Event Time Altitude Azimuth Distance (km) Brightness Sun altitude
Rises 16:22:22 0° 162° (SSE) 3,225 7.1 -18.0°
Reaches altitude 10° 16:24:39 10° 161° (SSE) 2,302 6.4 -18.5°
Maximum altitude 16:29:43 79° 76° (ENE) 787 3.9 -19.5°
Drops below altitude 10° 16:34:49 10° 349° (N) 2,316 6.5 -20.5°
Sets 16:37:08 0° 349° (NNW) 3,246 7.3 -21.0°
